GEFSCGP_prec_meanprecacc_276.txt.gz
Total_Precipitation_Accumulation
0.02 0.03 0.05 0.06 0.06 0.08 0.11 0.21 0.26 0.27 0.33 0.37 0.46 0.53 0.84 1.09 1.19 1.33 1.51 1.75 1.91 2.08 2.16 2.35 2.73 2.98 3.14 3.20 3.40 3.73 4.17 4.55 4.67 4.49 4.41 4.38 4.14 3.83 3.46 3.24 3.24 3.31 3.16 3.22
0.04 0.05 0.05 0.06 0.06 0.09 0.13 0.22 0.29 0.33 0.36 0.37 0.53 0.64 0.88 1.33 1.48 1.44 1.50 1.52 1.56 2.00 2.20 2.42 2.76 2.90 2.85 2.99 3.28 3.72 4.18 4.51 4.41 4.52 4.74 4.70 4.49 3.81 3.45 3.32 3.23 3.13 3.02 2.99
0.05 0.05 0.04 0.05 0.07 0.10 0.15 0.19 0.25 0.31 0.43 0.43 0.55 0.97 1.15 1.44 1.58 1.46 1.41 1.42 1.38 1.57 1.87 2.01 2.21 2.37 2.60 3.02 3.47 3.80 4.10 4.24 4.25 4.45 4.59 4.31 4.11 3.62 3.48 3.46 3.29 3.13 3.12 3.10
0.04 0.05 0.04 0.07 0.10 0.10 0.17 0.16 0.18 0.26 0.43 0.59 0.65 1.29 1.58 1.77 1.65 1.38 1.39 1.44 1.54 1.66 1.75 1.87 1.90 2.20 2.58 3.01 3.59 4.00 4.03 4.09 3.94 4.05 4.17 4.01 3.68 3.44 3.34 3.32 3.09 2.97 2.90 2.89
0.07 0.06 0.06 0.07 0.08 0.09 0.14 0.13 0.15 0.24 0.37 0.59 0.72 1.12 1.59 1.69 1.59 1.29 1.20 1.40 1.63 1.61 1.67 1.90 1.85 2.04 2.31 2.73 3.13 3.54 3.90 3.94 3.73 3.65 3.70 3.85 3.69 3.41 3.20 3.10 3.01 2.94 2.91 2.72
0.09 0.09 0.08 0.09 0.09 0.08 0.10 0.13 0.22 0.35 0.58 0.97 0.76 0.87 1.29 1.54 1.43 1.18 1.19 1.32 1.49 1.66 1.67 1.83 2.08 2.13 2.27 2.54 2.88 3.18 3.39 3.36 3.28 3.23 3.26 3.39 3.47 3.44 3.19 2.99 3.02 2.97 2.83 2.67
0.18 0.19 0.15 0.12 0.12 0.11 0.12 0.23 0.62 1.03 1.33 1.17 0.79 0.87 1.22 1.17 1.01 0.92 1.00 1.27 1.52 1.79 1.81 1.85 2.03 2.14 2.24 2.34 2.52 2.66 2.73 2.76 2.73 2.76 2.73 2.73 2.88 2.96 2.85 2.76 2.83 2.84 2.72 2.60
0.27 0.27 0.20 0.17 0.15 0.15 0.16 0.27 0.66 0.91 1.06 1.00 0.93 1.13 1.20 0.96 0.82 0.83 0.91 1.10 1.40 1.58 1.62 1.73 1.81 1.75 1.76 1.81 1.94 2.10 2.19 2.20 2.16 2.24 2.33 2.35 2.55 2.57 2.59 2.72 2.62 2.65 2.59 2.55
0.15 0.17 0.17 0.17 0.18 0.18 0.23 0.29 0.31 0.51 0.64 1.01 1.22 1.32 1.21 0.88 1.00 1.00 1.08 1.14 1.20 1.26 1.32 1.34 1.37 1.42 1.53 1.57 1.64 1.77 1.87 1.87 1.79 1.85 2.02 2.09 2.16 2.28 2.39 2.50 2.41 2.29 2.31 2.19
0.08 0.13 0.17 0.13 0.14 0.17 0.24 0.37 0.50 0.73 0.98 1.16 1.30 1.54 1.72 1.52 1.42 1.29 1.40 1.62 1.37 1.11 1.15 1.19 1.18 1.22 1.25 1.30 1.42 1.58 1.68 1.81 1.81 1.77 1.82 1.79 1.89 2.00 2.19 2.27 2.16 2.17 2.25 2.19
0.08 0.12 0.18 0.20 0.17 0.22 0.36 0.45 0.55 0.69 0.80 1.08 1.43 1.60 1.39 1.53 1.48 1.41 1.39 1.44 1.32 1.01 0.93 1.03 0.98 1.01 1.07 1.13 1.24 1.40 1.68 1.83 1.76 1.61 1.67 1.77 1.75 1.82 1.94 2.00 1.94 2.03 2.14 2.27
0.11 0.13 0.18 0.23 0.22 0.21 0.30 0.44 0.55 0.71 0.80 0.90 1.15 1.40 1.01 1.16 1.14 1.11 1.17 1.04 0.96 0.90 0.74 0.86 0.91 0.86 0.90 0.95 1.06 1.25 1.47 1.64 1.65 1.60 1.62 1.74 1.81 1.79 1.76 1.74 1.77 1.83 1.86 1.93
0.13 0.18 0.31 0.51 0.47 0.31 0.28 0.30 0.37 0.47 0.62 0.71 1.01 1.32 0.93 0.92 1.03 1.04 1.00 0.99 0.84 0.89 0.82 0.79 0.89 0.93 0.89 0.87 0.99 1.18 1.24 1.45 1.65 1.65 1.62 1.70 1.68 1.64 1.69 1.82 1.88 1.85 1.86 1.89
0.15 0.17 0.28 0.54 0.59 0.46 0.35 0.34 0.36 0.40 0.56 0.59 0.68 1.01 1.02 1.02 1.05 1.12 1.06 0.89 0.75 0.77 0.85 0.81 0.81 0.81 0.74 0.74 0.84 1.05 1.15 1.29 1.46 1.60 1.67 1.77 1.76 1.77 1.87 1.97 2.05 2.00 1.92 1.95
0.14 0.15 0.19 0.27 0.34 0.35 0.32 0.32 0.34 0.37 0.42 0.55 0.63 0.81 0.96 0.95 1.00 1.15 1.04 0.88 0.84 0.74 0.75 0.78 0.73 0.66 0.63 0.66 0.76 0.95 1.11 1.24 1.37 1.59 1.73 1.83 1.88 1.89 1.91 1.92 1.99 1.99 1.88 1.84
0.20 0.21 0.25 0.34 0.36 0.39 0.36 0.36 0.32 0.30 0.29 0.34 0.53 0.78 0.78 0.76 0.82 0.98 0.99 1.04 1.01 0.90 0.74 0.68 0.70 0.71 0.71 0.65 0.68 0.74 0.91 1.09 1.24 1.46 1.60 1.67 1.79 1.90 1.88 1.82 1.86 1.85 1.88 1.92
0.26 0.30 0.39 0.45 0.49 0.56 0.58 0.45 0.44 0.42 0.38 0.42 0.66 0.80 0.67 0.68 0.73 0.77 0.82 0.96 0.96 0.91 0.97 0.96 0.87 0.88 0.77 0.68 0.70 0.73 0.80 0.98 1.18 1.33 1.42 1.54 1.68 1.76 1.77 1.72 1.78 1.87 1.90 1.89
0.32 0.39 0.45 0.48 0.65 0.90 0.68 0.42 0.38 0.39 0.42 0.41 0.52 0.59 0.58 0.63 0.63 0.71 0.83 0.85 0.83 0.74 0.76 0.90 0.97 0.97 0.94 0.84 0.86 0.89 0.93 1.03 1.19 1.33 1.43 1.51 1.63 1.68 1.71 1.69 1.65 1.71 1.73 1.74
0.30 0.45 0.53 0.59 0.72 0.76 0.65 0.52 0.51 0.52 0.56 0.41 0.46 0.53 0.59 0.69 0.73 0.83 0.75 0.72 0.77 0.70 0.78 0.82 0.88 0.97 1.10 1.12 1.09 1.12 1.21 1.28 1.24 1.31 1.45 1.57 1.67 1.72 1.73 1.75 1.71 1.74 1.74 1.70
0.33 0.43 0.58 0.62 0.86 0.96 0.79 0.60 0.62 0.70 1.00 0.68 0.60 0.68 0.75 0.76 1.00 1.08 0.76 0.77 0.90 0.76 0.74 0.81 0.84 0.86 1.04 1.16 1.18 1.21 1.27 1.32 1.28 1.34 1.45 1.58 1.70 1.83 1.80 1.86 1.90 1.87 1.78 1.73
0.63 0.67 0.67 0.68 0.90 1.02 0.72 0.57 0.69 1.22 1.37 0.86 0.78 0.81 0.87 0.93 0.96 0.90 0.77 0.88 1.01 0.85 0.78 0.71 0.77 0.99 1.11 1.16 1.23 1.30 1.27 1.32 1.34 1.47 1.56 1.67 1.76 1.83 1.83 1.91 1.97 1.97 1.91 1.91
0.90 0.90 0.85 0.92 1.18 1.27 0.76 0.68 0.99 1.16 0.88 0.83 0.83 0.80 0.83 0.85 0.82 0.76 0.71 0.77 0.86 0.90 0.88 0.91 1.01 1.11 1.15 1.19 1.34 1.47 1.51 1.44 1.54 1.64 1.63 1.71 1.84 1.70 1.70 1.94 2.02 2.04 2.07 2.04
0.97 1.02 1.07 1.14 1.26 1.08 0.94 1.00 1.07 0.93 0.97 0.88 0.79 0.80 0.78 0.78 0.77 0.77 0.74 0.68 0.74 0.88 0.90 0.99 1.09 1.11 1.13 1.19 1.34 1.59 1.62 1.55 1.56 1.65 1.70 1.71 1.77 1.90 1.99 2.05 2.10 2.06 2.03 2.02
1.10 0.95 1.15 1.30 1.29 1.15 1.12 1.12 1.11 1.03 1.02 0.93 0.82 0.86 0.81 0.84 0.93 0.88 0.86 0.86 0.79 0.83 0.87 0.93 1.04 1.06 1.18 1.27 1.42 1.68 1.73 1.68 1.70 1.77 1.86 1.86 1.83 1.89 2.07 2.25 2.25 2.17 2.03 2.07
1.28 1.20 1.36 1.58 1.51 1.31 1.17 1.04 0.99 0.94 0.89 0.84 0.86 0.92 0.93 0.92 1.00 0.99 1.04 1.07 0.99 0.91 0.89 0.98 1.13 1.25 1.28 1.33 1.41 1.58 1.74 1.87 1.95 1.98 1.97 1.98 2.01 2.05 2.13 2.13 2.11 2.10 2.05 1.99
1.27 1.41 1.69 1.83 1.51 1.34 1.29 1.14 1.10 0.93 0.82 0.82 0.86 0.88 0.95 0.96 1.01 0.99 1.05 1.11 1.08 1.09 1.17 1.18 1.21 1.33 1.39 1.42 1.48 1.59 1.80 2.08 2.28 2.25 2.15 2.15 2.14 2.15 2.12 2.12 1.96 1.83 1.76 1.70

GEFSCGP_prec_meanprecacc_282.txt.gz
Total_Precipitation_Accumulation
0.02 0.03 0.05 0.06 0.06 0.08 0.11 0.21 0.26 0.28 0.33 0.37 0.46 0.53 0.84 1.09 1.19 1.33 1.51 1.75 1.91 2.09 2.16 2.35 2.73 2.99 3.15 3.28 3.50 3.77 4.21 4.60 4.73 4.55 4.48 4.46 4.23 3.93 3.55 3.38 3.47 3.52 3.30 3.34
0.04 0.05 0.05 0.06 0.06 0.09 0.13 0.22 0.29 0.33 0.36 0.37 0.53 0.64 0.88 1.33 1.48 1.44 1.50 1.52 1.56 2.00 2.20 2.43 2.76 2.90 2.86 3.04 3.32 3.75 4.22 4.55 4.45 4.57 4.80 4.79 4.60 3.94 3.58 3.44 3.42 3.32 3.16 3.12
0.05 0.05 0.04 0.06 0.08 0.11 0.15 0.19 0.25 0.31 0.43 0.43 0.55 0.97 1.15 1.44 1.58 1.46 1.41 1.42 1.38 1.57 1.87 2.01 2.21 2.37 2.61 3.03 3.49 3.83 4.14 4.27 4.27 4.49 4.66 4.39 4.20 3.73 3.58 3.56 3.43 3.25 3.20 3.17
0.04 0.05 0.04 0.07 0.10 0.11 0.17 0.16 0.18 0.26 0.43 0.59 0.65 1.29 1.58 1.77 1.65 1.38 1.39 1.44 1.54 1.66 1.75 1.87 1.90 2.20 2.59 3.03 3.62 4.03 4.05 4.11 3.96 4.09 4.24 4.10 3.76 3.51 3.40 3.38 3.15 3.02 2.94 2.93
0.07 0.06 0.06 0.07 0.08 0.09 0.14 0.13 0.15 0.24 0.37 0.59 0.73 1.12 1.59 1.69 1.59 1.29 1.20 1.40 1.63 1.61 1.67 1.90 1.85 2.04 2.32 2.74 3.15 3.57 3.92 3.96 3.76 3.70 3.76 3.91 3.74 3.46 3.24 3.14 3.05 2.99 2.95 2.76
0.09 0.09 0.08 0.09 0.09 0.09 0.10 0.13 0.22 0.36 0.58 0.97 0.77 0.87 1.29 1.54 1.43 1.18 1.19 1.32 1.49 1.66 1.67 1.83 2.08 2.14 2.29 2.55 2.90 3.20 3.42 3.38 3.31 3.25 3.29 3.42 3.50 3.46 3.22 3.02 3.05 3.00 2.86 2.70
0.18 0.19 0.16 0.12 0.12 0.11 0.12 0.23 0.63 1.04 1.34 1.18 0.80 0.87 1.22 1.17 1.01 0.92 1.00 1.27 1.52 1.79 1.81 1.85 2.03 2.15 2.25 2.36 2.54 2.69 2.76 2.79 2.75 2.78 2.75 2.75 2.90 2.98 2.87 2.78 2.85 2.85 2.74 2.62
0.27 0.27 0.20 0.17 0.15 0.15 0.16 0.27 0.66 0.92 1.07 1.00 0.93 1.13 1.20 0.96 0.82 0.83 0.91 1.10 1.40 1.58 1.62 1.73 1.81 1.75 1.77 1.83 1.97 2.12 2.20 2.21 2.18 2.25 2.34 2.36 2.57 2.59 2.60 2.73 2.63 2.66 2.60 2.57
0.15 0.17 0.17 0.17 0.18 0.18 0.23 0.29 0.31 0.52 0.65 1.02 1.22 1.32 1.21 0.89 1.00 1.00 1.08 1.14 1.20 1.26 1.32 1.34 1.37 1.42 1.54 1.58 1.65 1.78 1.87 1.87 1.80 1.86 2.03 2.11 2.18 2.31 2.41 2.52 2.42 2.29 2.31 2.20
0.08 0.13 0.17 0.13 0.14 0.17 0.24 0.37 0.50 0.73 0.98 1.16 1.30 1.55 1.72 1.52 1.42 1.29 1.40 1.62 1.37 1.11 1.15 1.19 1.18 1.22 1.25 1.31 1.42 1.58 1.68 1.82 1.81 1.77 1.83 1.82 1.93 2.03 2.20 2.28 2.17 2.18 2.26 2.21
0.08 0.12 0.18 0.20 0.17 0.22 0.36 0.45 0.55 0.69 0.80 1.08 1.43 1.61 1.39 1.53 1.48 1.41 1.39 1.44 1.32 1.01 0.93 1.03 0.99 1.01 1.07 1.14 1.25 1.40 1.68 1.84 1.77 1.62 1.69 1.80 1.78 1.87 1.96 2.01 1.94 2.04 2.14 2.28
0.11 0.13 0.18 0.23 0.22 0.21 0.30 0.44 0.55 0.72 0.80 0.91 1.15 1.40 1.01 1.16 1.14 1.11 1.17 1.04 0.96 0.90 0.74 0.86 0.91 0.86 0.91 0.96 1.07 1.25 1.48 1.64 1.66 1.61 1.64 1.77 1.83 1.81 1.77 1.74 1.77 1.83 1.87 1.94
0.13 0.18 0.31 0.51 0.47 0.31 0.28 0.30 0.37 0.47 0.62 0.71 1.02 1.32 0.93 0.92 1.03 1.04 1.00 0.99 0.84 0.89 0.82 0.79 0.89 0.93 0.89 0.87 0.99 1.18 1.25 1.45 1.65 1.65 1.65 1.75 1.70 1.66 1.71 1.84 1.90 1.88 1.89 1.91
0.15 0.17 0.28 0.54 0.59 0.46 0.35 0.34 0.36 0.40 0.56 0.59 0.68 1.01 1.02 1.02 1.05 1.12 1.06 0.90 0.75 0.77 0.85 0.81 0.81 0.81 0.74 0.75 0.85 1.05 1.15 1.29 1.46 1.60 1.70 1.81 1.79 1.80 1.90 2.01 2.09 2.03 1.95 1.97
0.14 0.15 0.19 0.27 0.34 0.35 0.32 0.32 0.34 0.37 0.42 0.55 0.63 0.81 0.96 0.95 1.00 1.15 1.04 0.89 0.84 0.74 0.75 0.78 0.74 0.66 0.64 0.66 0.76 0.95 1.11 1.25 1.38 1.62 1.77 1.87 1.92 1.92 1.95 1.96 2.04 2.04 1.94 1.90
0.20 0.21 0.25 0.34 0.36 0.39 0.36 0.36 0.32 0.31 0.29 0.34 0.53 0.78 0.78 0.76 0.82 0.98 0.99 1.04 1.02 0.91 0.75 0.69 0.70 0.71 0.71 0.66 0.68 0.75 0.92 1.11 1.28 1.50 1.65 1.71 1.84 1.95 1.94 1.89 1.93 1.93 1.96 2.01
0.26 0.31 0.40 0.46 0.49 0.56 0.58 0.45 0.44 0.42 0.38 0.42 0.66 0.80 0.67 0.68 0.74 0.77 0.83 0.97 0.96 0.92 0.98 0.96 0.88 0.88 0.78 0.68 0.70 0.74 0.82 1.01 1.23 1.39 1.49 1.62 1.77 1.85 1.85 1.78 1.84 1.94 1.97 1.95
0.32 0.40 0.45 0.49 0.66 0.91 0.68 0.42 0.38 0.39 0.42 0.41 0.52 0.59 0.58 0.63 0.64 0.71 0.84 0.86 0.83 0.74 0.77 0.91 0.98 0.98 0.94 0.84 0.87 0.91 0.96 1.09 1.26 1.42 1.51 1.58 1.69 1.73 1.75 1.72 1.69 1.77 1.81 1.81
0.30 0.45 0.54 0.60 0.73 0.77 0.65 0.52 0.51 0.52 0.56 0.41 0.46 0.53 0.59 0.69 0.73 0.83 0.75 0.72 0.77 0.72 0.80 0.85 0.91 0.97 1.10 1.13 1.10 1.15 1.25 1.34 1.33 1.39 1.51 1.61 1.71 1.75 1.76 1.79 1.76 1.80 1.81 1.76
0.34 0.44 0.59 0.62 0.87 0.97 0.80 0.60 0.62 0.70 1.00 0.68 0.60 0.68 0.75 0.76 1.00 1.08 0.77 0.78 0.92 0.79 0.76 0.84 0.86 0.87 1.05 1.17 1.20 1.24 1.30 1.37 1.34 1.39 1.50 1.62 1.73 1.88 1.86 1.93 1.96 1.92 1.82 1.75
0.64 0.68 0.68 0.68 0.91 1.02 0.72 0.57 0.69 1.23 1.37 0.86 0.78 0.81 0.87 0.93 0.96 0.90 0.77 0.88 1.03 0.89 0.80 0.73 0.79 1.00 1.12 1.17 1.25 1.32 1.30 1.35 1.38 1.52 1.60 1.70 1.78 1.85 1.84 1.92 1.98 1.98 1.92 1.92
0.91 0.91 0.86 0.93 1.20 1.28 0.76 0.68 0.99 1.16 0.88 0.83 0.83 0.80 0.84 0.85 0.82 0.76 0.71 0.77 0.87 0.92 0.89 0.91 1.02 1.13 1.17 1.21 1.36 1.49 1.53 1.47 1.57 1.68 1.66 1.74 1.85 1.71 1.71 1.94 2.03 2.05 2.08 2.05
0.98 1.02 1.08 1.15 1.27 1.09 0.95 1.00 1.07 0.93 0.97 0.88 0.79 0.80 0.78 0.79 0.78 0.78 0.75 0.69 0.75 0.89 0.91 0.99 1.10 1.12 1.15 1.21 1.36 1.60 1.63 1.57 1.58 1.67 1.72 1.73 1.78 1.91 1.99 2.05 2.10 2.07 2.04 2.03
1.11 0.97 1.18 1.34 1.31 1.16 1.13 1.12 1.11 1.03 1.02 0.93 0.83 0.86 0.82 0.85 0.93 0.89 0.87 0.88 0.80 0.84 0.88 0.94 1.06 1.08 1.19 1.28 1.43 1.69 1.73 1.69 1.71 1.79 1.87 1.86 1.83 1.89 2.07 2.25 2.25 2.18 2.04 2.08
1.31 1.24 1.41 1.63 1.54 1.33 1.18 1.05 1.00 0.95 0.89 0.85 0.87 0.93 0.94 0.92 1.00 0.99 1.04 1.09 0.99 0.91 0.90 0.99 1.14 1.26 1.29 1.34 1.42 1.58 1.74 1.88 1.96 1.99 1.98 1.99 2.02 2.06 2.13 2.14 2.12 2.11 2.06 2.01
1.31 1.45 1.73 1.87 1.54 1.36 1.31 1.16 1.11 0.94 0.83 0.83 0.87 0.89 0.96 0.96 1.02 1.00 1.06 1.12 1.09 1.10 1.18 1.19 1.22 1.34 1.40 1.43 1.50 1.60 1.81 2.09 2.29 2.26 2.17 2.16 2.15 2.16 2.13 2.14 1.98 1.85 1.78 1.72

GEFSCGP_prec_meanprecacc_288.txt.gz
Total_Precipitation_Accumulation
0.02 0.04 0.06 0.07 0.08 0.08 0.11 0.21 0.26 0.29 0.33 0.37 0.46 0.54 0.85 1.09 1.19 1.33 1.51 1.75 1.92 2.09 2.17 2.35 2.73 3.00 3.17 3.31 3.58 3.88 4.25 4.63 4.76 4.60 4.54 4.52 4.31 4.05 3.68 3.53 3.62 3.65 3.41 3.44
0.04 0.06 0.07 0.07 0.07 0.09 0.13 0.22 0.29 0.34 0.37 0.37 0.53 0.65 0.88 1.33 1.48 1.44 1.50 1.52 1.57 2.00 2.20 2.43 2.76 2.90 2.87 3.06 3.37 3.79 4.25 4.58 4.50 4.63 4.86 4.85 4.66 4.03 3.70 3.59 3.58 3.44 3.26 3.21
0.06 0.06 0.04 0.06 0.08 0.11 0.15 0.19 0.25 0.32 0.45 0.43 0.55 0.98 1.15 1.44 1.58 1.46 1.41 1.42 1.38 1.57 1.88 2.01 2.21 2.37 2.61 3.03 3.51 3.85 4.18 4.32 4.34 4.57 4.73 4.47 4.28 3.82 3.69 3.70 3.59 3.37 3.29 3.27
0.05 0.06 0.05 0.07 0.10 0.11 0.17 0.16 0.18 0.27 0.45 0.60 0.66 1.30 1.58 1.77 1.65 1.38 1.39 1.44 1.54 1.66 1.75 1.87 1.90 2.21 2.59 3.03 3.63 4.06 4.09 4.16 4.02 4.16 4.32 4.19 3.85 3.61 3.50 3.49 3.27 3.13 3.03 3.02
0.07 0.06 0.07 0.08 0.08 0.09 0.14 0.13 0.15 0.25 0.38 0.61 0.73 1.13 1.60 1.69 1.60 1.29 1.20 1.40 1.63 1.61 1.67 1.90 1.85 2.04 2.32 2.75 3.17 3.60 3.95 4.01 3.82 3.77 3.85 4.01 3.84 3.55 3.32 3.21 3.12 3.05 3.01 2.81
0.10 0.09 0.09 0.10 0.09 0.09 0.11 0.13 0.22 0.36 0.58 0.99 0.77 0.87 1.30 1.55 1.44 1.19 1.19 1.32 1.49 1.66 1.67 1.83 2.08 2.14 2.29 2.56 2.92 3.23 3.46 3.44 3.38 3.34 3.38 3.51 3.57 3.52 3.28 3.09 3.13 3.08 2.92 2.75
0.18 0.20 0.16 0.13 0.12 0.11 0.12 0.24 0.64 1.06 1.36 1.18 0.80 0.87 1.22 1.18 1.01 0.93 1.00 1.27 1.52 1.79 1.81 1.85 2.03 2.15 2.25 2.36 2.55 2.71 2.80 2.85 2.82 2.85 2.83 2.82 2.95 3.03 2.92 2.83 2.90 2.92 2.79 2.67
0.27 0.27 0.20 0.17 0.15 0.15 0.16 0.28 0.69 0.94 1.09 1.03 0.94 1.15 1.21 0.96 0.82 0.84 0.91 1.10 1.40 1.58 1.62 1.73 1.81 1.75 1.77 1.83 1.97 2.13 2.22 2.24 2.21 2.30 2.40 2.42 2.62 2.64 2.64 2.76 2.66 2.69 2.62 2.59
0.15 0.17 0.17 0.17 0.18 0.18 0.23 0.30 0.32 0.52 0.66 1.05 1.25 1.33 1.21 0.89 1.01 1.00 1.08 1.14 1.20 1.27 1.32 1.34 1.37 1.43 1.54 1.58 1.66 1.78 1.88 1.88 1.81 1.88 2.06 2.14 2.22 2.34 2.43 2.54 2.44 2.31 2.34 2.22
0.08 0.13 0.17 0.13 0.14 0.17 0.24 0.37 0.50 0.73 0.99 1.18 1.33 1.57 1.74 1.54 1.45 1.30 1.40 1.62 1.37 1.11 1.15 1.19 1.18 1.23 1.25 1.31 1.43 1.59 1.68 1.82 1.82 1.79 1.85 1.83 1.94 2.04 2.22 2.30 2.18 2.20 2.29 2.23
0.08 0.12 0.18 0.20 0.17 0.22 0.36 0.45 0.55 0.69 0.80 1.09 1.45 1.64 1.42 1.57 1.55 1.47 1.41 1.44 1.32 1.01 0.94 1.03 0.99 1.01 1.07 1.14 1.25 1.40 1.69 1.85 1.79 1.64 1.70 1.81 1.79 1.87 1.97 2.03 1.96 2.06 2.17 2.31
0.11 0.13 0.18 0.23 0.22 0.21 0.30 0.44 0.55 0.72 0.81 0.91 1.16 1.42 1.03 1.16 1.14 1.11 1.17 1.04 0.96 0.91 0.74 0.86 0.91 0.86 0.91 0.96 1.07 1.25 1.48 1.65 1.67 1.62 1.65 1.77 1.84 1.82 1.78 1.75 1.79 1.85 1.89 1.97
0.14 0.19 0.32 0.52 0.48 0.31 0.28 0.30 0.37 0.47 0.62 0.71 1.04 1.36 0.94 0.92 1.04 1.04 1.00 0.99 0.84 0.90 0.82 0.79 0.89 0.93 0.90 0.89 0.99 1.19 1.25 1.46 1.66 1.66 1.65 1.75 1.71 1.67 1.72 1.85 1.91 1.89 1.90 1.93
0.15 0.17 0.28 0.54 0.59 0.46 0.35 0.34 0.36 0.41 0.56 0.59 0.69 1.04 1.04 1.03 1.06 1.12 1.06 0.90 0.75 0.77 0.86 0.82 0.82 0.81 0.74 0.76 0.86 1.06 1.16 1.31 1.48 1.61 1.71 1.83 1.80 1.81 1.91 2.02 2.10 2.04 1.96 1.99
0.15 0.15 0.19 0.27 0.34 0.35 0.32 0.32 0.34 0.38 0.42 0.55 0.63 0.82 0.97 0.96 1.02 1.16 1.05 0.89 0.85 0.75 0.76 0.79 0.74 0.67 0.64 0.67 0.76 0.95 1.12 1.26 1.39 1.63 1.79 1.88 1.92 1.93 1.95 1.97 2.05 2.05 1.94 1.92
0.20 0.21 0.25 0.34 0.36 0.39 0.36 0.36 0.32 0.31 0.29 0.34 0.53 0.79 0.79 0.77 0.83 0.98 0.99 1.06 1.04 0.93 0.77 0.71 0.71 0.73 0.73 0.66 0.69 0.77 0.93 1.12 1.29 1.51 1.66 1.72 1.85 1.96 1.95 1.90 1.94 1.93 1.97 2.02
0.26 0.31 0.40 0.46 0.49 0.56 0.58 0.46 0.44 0.42 0.38 0.42 0.66 0.81 0.68 0.69 0.74 0.78 0.84 0.99 0.97 0.94 0.99 0.99 0.90 0.91 0.80 0.70 0.73 0.77 0.84 1.03 1.24 1.40 1.50 1.63 1.77 1.86 1.86 1.79 1.85 1.95 1.98 1.96
0.32 0.40 0.45 0.49 0.67 0.92 0.69 0.43 0.38 0.39 0.43 0.41 0.52 0.59 0.58 0.63 0.64 0.71 0.85 0.87 0.84 0.75 0.79 0.94 1.01 1.01 0.97 0.86 0.89 0.93 0.98 1.11 1.27 1.43 1.52 1.60 1.71 1.75 1.76 1.74 1.70 1.78 1.82 1.82
0.30 0.45 0.55 0.62 0.75 0.78 0.66 0.52 0.51 0.52 0.56 0.41 0.46 0.53 0.59 0.69 0.74 0.84 0.76 0.74 0.79 0.73 0.81 0.87 0.93 1.00 1.12 1.14 1.12 1.16 1.27 1.35 1.35 1.41 1.53 1.63 1.73 1.78 1.78 1.81 1.77 1.82 1.82 1.77
0.34 0.44 0.61 0.65 0.91 1.00 0.81 0.60 0.62 0.71 1.01 0.68 0.60 0.68 0.75 0.77 1.02 1.10 0.77 0.78 0.93 0.79 0.78 0.86 0.90 0.90 1.07 1.19 1.22 1.26 1.32 1.38 1.36 1.42 1.53 1.64 1.75 1.89 1.87 1.94 1.96 1.93 1.83 1.76
0.65 0.69 0.70 0.71 0.95 1.06 0.75 0.59 0.70 1.25 1.40 0.86 0.78 0.81 0.87 0.94 0.96 0.91 0.78 0.88 1.04 0.91 0.85 0.77 0.84 1.03 1.13 1.18 1.27 1.34 1.32 1.37 1.40 1.54 1.62 1.72 1.80 1.86 1.85 1.93 1.99 1.99 1.93 1.93
0.93 0.93 0.87 0.94 1.23 1.34 0.81 0.73 1.02 1.19 0.89 0.84 0.84 0.80 0.84 0.85 0.82 0.76 0.72 0.78 0.88 0.95 0.95 0.95 1.04 1.14 1.18 1.23 1.39 1.52 1.56 1.50 1.60 1.70 1.68 1.75 1.86 1.72 1.72 1.96 2.04 2.06 2.09 2.06
1.01 1.06 1.11 1.17 1.30 1.12 1.00 1.05 1.10 0.96 0.99 0.89 0.80 0.80 0.78 0.79 0.78 0.78 0.76 0.69 0.76 0.92 0.95 1.00 1.11 1.13 1.17 1.24 1.41 1.65 1.68 1.61 1.62 1.70 1.74 1.74 1.79 1.91 1.99 2.06 2.11 2.09 2.05 2.04
1.15 1.01 1.21 1.37 1.34 1.18 1.17 1.16 1.15 1.07 1.04 0.95 0.83 0.86 0.82 0.85 0.94 0.89 0.88 0.88 0.81 0.85 0.89 0.94 1.07 1.09 1.20 1.30 1.47 1.74 1.78 1.73 1.76 1.83 1.90 1.88 1.84 1.90 2.08 2.26 2.27 2.19 2.05 2.09
1.37 1.31 1.48 1.69 1.60 1.39 1.22 1.07 1.02 0.97 0.91 0.86 0.88 0.93 0.94 0.93 1.01 1.00 1.05 1.10 1.01 0.93 0.91 1.00 1.15 1.27 1.31 1.36 1.45 1.62 1.78 1.92 2.00 2.03 2.01 2.01 2.03 2.07 2.15 2.15 2.14 2.13 2.08 2.02
1.40 1.56 1.84 1.95 1.60 1.44 1.37 1.21 1.17 0.98 0.86 0.85 0.88 0.90 0.97 0.97 1.02 1.01 1.07 1.14 1.11 1.12 1.20 1.20 1.23 1.35 1.42 1.45 1.53 1.64 1.86 2.13 2.32 2.29 2.19 2.18 2.16 2.18 2.16 2.18 2.01 1.88 1.81 1.74

GEFSCGP_prec_meanprecacc_294.txt.gz
Total_Precipitation_Accumulation
0.03 0.05 0.07 0.09 0.09 0.09 0.12 0.21 0.27 0.29 0.34 0.38 0.47 0.54 0.85 1.09 1.20 1.33 1.52 1.75 1.93 2.12 2.18 2.37 2.77 3.04 3.20 3.33 3.60 3.89 4.26 4.65 4.78 4.62 4.57 4.57 4.40 4.18 3.78 3.62 3.73 3.76 3.53 3.57
0.05 0.08 0.08 0.09 0.09 0.11 0.14 0.23 0.30 0.35 0.37 0.39 0.54 0.66 0.89 1.33 1.49 1.44 1.51 1.53 1.57 2.01 2.22 2.45 2.78 2.93 2.90 3.09 3.39 3.81 4.27 4.61 4.52 4.65 4.90 4.91 4.74 4.15 3.82 3.70 3.69 3.55 3.37 3.32
0.06 0.07 0.06 0.07 0.09 0.12 0.16 0.19 0.26 0.33 0.46 0.44 0.57 1.00 1.16 1.45 1.59 1.47 1.42 1.43 1.38 1.58 1.90 2.06 2.24 2.40 2.66 3.06 3.53 3.88 4.20 4.34 4.37 4.59 4.77 4.52 4.37 3.95 3.84 3.82 3.70 3.48 3.39 3.35
0.05 0.06 0.06 0.08 0.11 0.12 0.18 0.17 0.19 0.27 0.46 0.61 0.68 1.34 1.60 1.79 1.67 1.39 1.40 1.45 1.55 1.67 1.76 1.88 1.92 2.23 2.63 3.07 3.67 4.11 4.12 4.20 4.07 4.21 4.38 4.25 3.94 3.72 3.59 3.56 3.36 3.23 3.13 3.12
0.08 0.07 0.08 0.09 0.09 0.10 0.14 0.14 0.16 0.26 0.39 0.62 0.74 1.16 1.62 1.71 1.61 1.31 1.22 1.42 1.65 1.62 1.67 1.91 1.86 2.06 2.35 2.79 3.21 3.65 4.00 4.08 3.90 3.87 3.98 4.12 3.93 3.63 3.39 3.25 3.18 3.12 3.09 2.91
0.10 0.09 0.10 0.10 0.10 0.09 0.11 0.14 0.24 0.37 0.59 1.00 0.78 0.89 1.31 1.56 1.46 1.22 1.23 1.35 1.52 1.67 1.67 1.83 2.09 2.15 2.31 2.59 2.96 3.26 3.49 3.48 3.44 3.42 3.47 3.57 3.62 3.57 3.33 3.13 3.17 3.13 2.96 2.81
0.19 0.21 0.16 0.13 0.13 0.12 0.13 0.26 0.67 1.08 1.38 1.20 0.81 0.88 1.24 1.19 1.04 0.96 1.04 1.30 1.54 1.81 1.82 1.85 2.04 2.16 2.27 2.38 2.56 2.73 2.81 2.87 2.84 2.87 2.86 2.86 2.98 3.06 2.95 2.86 2.95 2.96 2.84 2.73
0.27 0.28 0.20 0.17 0.15 0.15 0.17 0.30 0.71 0.96 1.12 1.05 0.95 1.16 1.24 0.99 0.86 0.87 0.97 1.15 1.43 1.60 1.64 1.74 1.82 1.76 1.78 1.84 1.98 2.14 2.23 2.26 2.23 2.32 2.42 2.43 2.64 2.66 2.66 2.79 2.69 2.72 2.66 2.64
0.15 0.17 0.17 0.17 0.18 0.18 0.24 0.31 0.34 0.55 0.69 1.08 1.28 1.35 1.23 0.92 1.07 1.07 1.17 1.22 1.24 1.30 1.34 1.35 1.38 1.43 1.54 1.59 1.66 1.79 1.89 1.90 1.84 1.91 2.08 2.15 2.23 2.36 2.45 2.55 2.46 2.33 2.36 2.26
0.09 0.13 0.17 0.14 0.14 0.18 0.26 0.38 0.52 0.76 1.02 1.22 1.36 1.60 1.78 1.59 1.54 1.43 1.55 1.70 1.41 1.15 1.17 1.20 1.18 1.23 1.26 1.31 1.43 1.59 1.69 1.84 1.85 1.82 1.87 1.84 1.95 2.05 2.23 2.31 2.20 2.21 2.30 2.24
0.10 0.13 0.18 0.20 0.18 0.22 0.37 0.46 0.56 0.71 0.83 1.12 1.49 1.68 1.46 1.65 1.68 1.61 1.51 1.51 1.37 1.04 0.96 1.06 0.99 1.01 1.08 1.14 1.25 1.41 1.70 1.86 1.81 1.66 1.72 1.82 1.80 1.88 1.98 2.03 1.97 2.07 2.19 2.32
0.13 0.14 0.19 0.24 0.23 0.21 0.31 0.46 0.56 0.74 0.82 0.92 1.19 1.45 1.06 1.21 1.20 1.16 1.21 1.08 1.00 0.93 0.76 0.87 0.92 0.87 0.92 0.97 1.08 1.26 1.49 1.66 1.68 1.64 1.67 1.79 1.85 1.82 1.79 1.76 1.79 1.86 1.91 1.98
0.14 0.20 0.33 0.53 0.50 0.34 0.30 0.31 0.38 0.48 0.63 0.73 1.05 1.38 0.97 0.97 1.07 1.07 1.03 1.02 0.88 0.93 0.85 0.81 0.91 0.94 0.92 0.94 1.05 1.22 1.26 1.47 1.68 1.69 1.68 1.77 1.72 1.68 1.73 1.87 1.93 1.90 1.91 1.94
0.15 0.18 0.29 0.56 0.60 0.48 0.38 0.36 0.37 0.42 0.57 0.61 0.71 1.06 1.06 1.06 1.10 1.15 1.10 0.95 0.82 0.86 0.92 0.85 0.84 0.84 0.78 0.83 0.97 1.11 1.19 1.34 1.51 1.64 1.74 1.85 1.82 1.83 1.94 2.05 2.12 2.06 1.97 1.99
0.15 0.16 0.19 0.28 0.36 0.36 0.33 0.33 0.35 0.38 0.43 0.56 0.65 0.84 1.00 1.00 1.05 1.18 1.09 0.97 0.94 0.84 0.83 0.85 0.78 0.70 0.67 0.70 0.79 0.98 1.15 1.29 1.43 1.67 1.81 1.91 1.95 1.96 1.99 1.99 2.07 2.06 1.96 1.93
0.21 0.22 0.26 0.34 0.37 0.40 0.37 0.37 0.33 0.32 0.30 0.36 0.55 0.81 0.81 0.79 0.85 1.00 1.02 1.09 1.07 0.96 0.80 0.74 0.74 0.75 0.75 0.70 0.72 0.79 0.96 1.15 1.31 1.55 1.70 1.76 1.89 2.00 1.98 1.93 1.97 1.96 2.00 2.05
0.27 0.32 0.41 0.47 0.50 0.57 0.59 0.48 0.46 0.44 0.41 0.46 0.68 0.83 0.69 0.71 0.76 0.79 0.85 1.00 0.98 0.96 1.02 1.02 0.93 0.93 0.84 0.82 0.85 0.86 0.88 1.06 1.27 1.43 1.55 1.67 1.80 1.88 1.90 1.83 1.89 1.99 2.02 1.99
0.33 0.41 0.46 0.50 0.68 0.94 0.71 0.46 0.40 0.41 0.45 0.43 0.53 0.61 0.59 0.65 0.65 0.72 0.86 0.89 0.86 0.77 0.81 0.97 1.03 1.04 1.00 0.92 0.98 0.99 1.02 1.13 1.30 1.47 1.57 1.63 1.75 1.81 1.83 1.79 1.77 1.83 1.86 1.85
0.31 0.46 0.56 0.64 0.77 0.80 0.70 0.54 0.52 0.54 0.58 0.42 0.47 0.55 0.62 0.70 0.75 0.85 0.77 0.75 0.81 0.75 0.84 0.90 0.97 1.05 1.17 1.19 1.17 1.20 1.31 1.39 1.38 1.44 1.55 1.66 1.77 1.83 1.84 1.86 1.83 1.86 1.86 1.80
0.35 0.47 0.64 0.68 0.94 1.04 0.84 0.61 0.63 0.72 1.04 0.70 0.62 0.72 0.79 0.78 1.04 1.12 0.79 0.80 0.96 0.83 0.81 0.89 0.96 1.00 1.15 1.28 1.31 1.31 1.37 1.42 1.39 1.45 1.56 1.68 1.80 1.93 1.90 1.98 2.00 1.96 1.86 1.79
0.67 0.70 0.73 0.74 0.99 1.10 0.77 0.60 0.71 1.30 1.48 0.92 0.81 0.85 0.90 0.96 1.00 0.94 0.80 0.91 1.07 0.94 0.87 0.80 0.88 1.13 1.23 1.30 1.39 1.43 1.39 1.42 1.46 1.59 1.69 1.79 1.86 1.91 1.90 1.97 2.03 2.02 1.95 1.94
0.97 0.95 0.89 0.96 1.27 1.39 0.84 0.75 1.07 1.28 1.03 0.96 0.90 0.85 0.87 0.87 0.84 0.80 0.75 0.83 0.92 1.00 1.01 0.99 1.07 1.20 1.25 1.31 1.48 1.59 1.61 1.55 1.66 1.76 1.74 1.81 1.92 1.76 1.75 1.99 2.06 2.08 2.10 2.07
1.05 1.10 1.15 1.21 1.35 1.19 1.08 1.12 1.16 1.05 1.13 1.07 0.93 0.87 0.84 0.83 0.82 0.85 0.81 0.75 0.83 0.97 1.00 1.04 1.14 1.17 1.22 1.29 1.45 1.69 1.72 1.65 1.65 1.75 1.80 1.80 1.84 1.95 2.02 2.08 2.13 2.10 2.06 2.05
1.20 1.06 1.29 1.44 1.40 1.29 1.33 1.29 1.22 1.17 1.18 1.10 0.98 0.99 0.91 0.91 1.02 0.99 0.97 0.95 0.88 0.88 0.90 0.96 1.09 1.12 1.23 1.33 1.50 1.76 1.80 1.75 1.78 1.87 1.96 1.94 1.90 1.93 2.10 2.28 2.28 2.19 2.06 2.10
1.42 1.39 1.59 1.80 1.72 1.54 1.39 1.22 1.12 1.07 1.03 0.97 0.97 1.02 1.03 1.01 1.10 1.11 1.16 1.19 1.10 0.98 0.94 1.04 1.20 1.31 1.35 1.40 1.48 1.65 1.80 1.94 2.03 2.07 2.06 2.07 2.09 2.12 2.19 2.19 2.16 2.15 2.10 2.04
1.46 1.67 1.99 2.13 1.75 1.58 1.54 1.37 1.29 1.09 0.99 0.96 0.97 0.97 1.04 1.04 1.09 1.07 1.14 1.22 1.20 1.21 1.28 1.27 1.27 1.40 1.46 1.48 1.55 1.66 1.88 2.15 2.36 2.33 2.24 2.24 2.22 2.23 2.21 2.22 2.06 1.91 1.83 1.76

GEFSCGP_prec_meanprecacc_300.txt.gz
Total_Precipitation_Accumulation
0.04 0.05 0.07 0.10 0.09 0.09 0.12 0.21 0.27 0.29 0.35 0.39 0.47 0.55 0.85 1.09 1.20 1.34 1.52 1.75 1.93 2.13 2.20 2.40 2.81 3.08 3.28 3.40 3.65 3.92 4.29 4.68 4.81 4.64 4.60 4.60 4.43 4.22 3.81 3.65 3.77 3.80 3.57 3.61
0.07 0.08 0.08 0.10 0.10 0.11 0.14 0.23 0.30 0.35 0.38 0.39 0.55 0.66 0.89 1.33 1.49 1.45 1.51 1.54 1.58 2.02 2.24 2.48 2.82 3.00 2.98 3.17 3.45 3.84 4.29 4.63 4.55 4.68 4.93 4.94 4.78 4.19 3.85 3.74 3.74 3.59 3.41 3.35
0.07 0.07 0.06 0.08 0.10 0.13 0.17 0.20 0.26 0.33 0.46 0.45 0.58 1.01 1.17 1.45 1.60 1.47 1.42 1.44 1.39 1.59 1.91 2.08 2.29 2.50 2.72 3.13 3.57 3.91 4.23 4.37 4.41 4.65 4.82 4.57 4.42 4.00 3.88 3.87 3.77 3.56 3.45 3.40
0.06 0.07 0.06 0.09 0.12 0.12 0.18 0.17 0.19 0.28 0.46 0.61 0.69 1.34 1.60 1.79 1.67 1.40 1.41 1.47 1.57 1.68 1.76 1.90 1.97 2.30 2.69 3.10 3.69 4.13 4.15 4.23 4.12 4.30 4.47 4.33 4.01 3.77 3.64 3.63 3.44 3.33 3.24 3.19
0.08 0.08 0.09 0.09 0.10 0.10 0.14 0.14 0.17 0.26 0.39 0.62 0.75 1.16 1.62 1.71 1.62 1.32 1.23 1.43 1.66 1.63 1.68 1.91 1.89 2.11 2.39 2.81 3.23 3.67 4.03 4.10 3.94 3.92 4.03 4.17 3.97 3.67 3.43 3.29 3.25 3.21 3.20 3.02
0.10 0.09 0.10 0.11 0.11 0.10 0.11 0.15 0.25 0.38 0.60 1.00 0.79 0.90 1.32 1.56 1.47 1.23 1.24 1.36 1.53 1.69 1.68 1.84 2.11 2.18 2.34 2.60 2.97 3.27 3.50 3.50 3.46 3.44 3.50 3.59 3.65 3.60 3.35 3.16 3.21 3.18 3.05 2.91
0.19 0.21 0.17 0.13 0.13 0.12 0.13 0.26 0.68 1.09 1.38 1.20 0.81 0.88 1.24 1.20 1.04 0.97 1.06 1.31 1.55 1.82 1.83 1.86 2.05 2.18 2.28 2.39 2.58 2.74 2.82 2.87 2.86 2.90 2.88 2.88 3.01 3.08 2.97 2.89 2.97 3.00 2.89 2.78
0.27 0.28 0.21 0.17 0.15 0.15 0.17 0.30 0.72 0.97 1.12 1.05 0.95 1.16 1.24 1.00 0.86 0.89 0.97 1.15 1.43 1.61 1.65 1.75 1.83 1.77 1.79 1.85 1.99 2.15 2.24 2.27 2.24 2.34 2.45 2.45 2.65 2.68 2.69 2.80 2.70 2.74 2.68 2.67
0.15 0.17 0.17 0.17 0.18 0.18 0.24 0.32 0.35 0.56 0.70 1.08 1.28 1.36 1.24 0.94 1.08 1.08 1.18 1.23 1.24 1.31 1.35 1.36 1.39 1.44 1.55 1.60 1.68 1.80 1.90 1.92 1.86 1.95 2.12 2.17 2.24 2.38 2.48 2.57 2.47 2.35 2.38 2.28
0.09 0.13 0.17 0.14 0.15 0.18 0.26 0.39 0.53 0.77 1.03 1.22 1.37 1.61 1.78 1.60 1.56 1.44 1.57 1.71 1.42 1.15 1.18 1.21 1.19 1.23 1.26 1.32 1.45 1.61 1.71 1.87 1.88 1.86 1.91 1.87 1.97 2.08 2.26 2.33 2.21 2.23 2.32 2.26
0.10 0.13 0.19 0.20 0.19 0.23 0.37 0.46 0.56 0.72 0.83 1.12 1.49 1.68 1.46 1.66 1.69 1.62 1.52 1.53 1.38 1.04 0.96 1.06 1.00 1.02 1.08 1.15 1.27 1.43 1.71 1.89 1.85 1.70 1.76 1.86 1.84 1.91 2.01 2.06 1.98 2.09 2.20 2.33
0.13 0.14 0.19 0.24 0.23 0.22 0.32 0.46 0.56 0.74 0.83 0.93 1.19 1.45 1.06 1.22 1.20 1.17 1.22 1.09 1.01 0.94 0.76 0.88 0.93 0.88 0.93 0.98 1.09 1.28 1.50 1.69 1.73 1.68 1.70 1.82 1.90 1.87 1.83 1.79 1.82 1.89 1.92 1.99
0.15 0.20 0.33 0.53 0.50 0.34 0.30 0.31 0.39 0.48 0.64 0.73 1.06 1.38 0.98 0.98 1.08 1.08 1.04 1.02 0.88 0.94 0.86 0.82 0.92 0.95 0.93 0.94 1.06 1.23 1.28 1.49 1.72 1.73 1.73 1.85 1.79 1.72 1.76 1.90 1.97 1.94 1.94 1.96
0.16 0.18 0.29 0.56 0.60 0.48 0.38 0.36 0.37 0.42 0.57 0.61 0.71 1.06 1.07 1.07 1.10 1.15 1.10 0.95 0.83 0.87 0.93 0.86 0.86 0.86 0.79 0.85 0.99 1.14 1.22 1.36 1.53 1.68 1.79 1.90 1.86 1.87 1.96 2.08 2.17 2.11 2.01 2.02
0.15 0.16 0.19 0.28 0.36 0.36 0.33 0.33 0.35 0.39 0.44 0.56 0.65 0.84 1.00 1.00 1.05 1.19 1.09 0.98 0.94 0.85 0.84 0.86 0.80 0.72 0.70 0.73 0.83 1.02 1.19 1.33 1.46 1.70 1.84 1.95 2.00 2.00 2.03 2.05 2.14 2.12 2.00 1.97
0.21 0.22 0.26 0.34 0.37 0.40 0.38 0.37 0.33 0.32 0.31 0.37 0.55 0.82 0.81 0.79 0.86 1.00 1.02 1.10 1.08 0.97 0.81 0.74 0.75 0.76 0.77 0.71 0.74 0.82 0.99 1.18 1.35 1.57 1.74 1.81 1.93 2.03 2.03 2.00 2.05 2.04 2.08 2.11
0.27 0.32 0.42 0.48 0.50 0.57 0.59 0.48 0.46 0.45 0.41 0.46 0.69 0.83 0.70 0.71 0.77 0.80 0.86 1.01 0.99 0.96 1.03 1.02 0.94 0.94 0.86 0.84 0.87 0.88 0.90 1.08 1.29 1.46 1.60 1.71 1.85 1.93 1.95 1.91 2.00 2.11 2.10 2.03
0.33 0.41 0.47 0.51 0.69 0.95 0.71 0.46 0.41 0.42 0.46 0.44 0.55 0.62 0.60 0.65 0.66 0.73 0.86 0.90 0.87 0.78 0.81 0.97 1.03 1.05 1.01 0.94 1.03 1.04 1.06 1.16 1.35 1.54 1.65 1.72 1.85 1.90 1.92 1.90 1.87 1.90 1.89 1.88
0.32 0.46 0.56 0.64 0.78 0.81 0.70 0.55 0.53 0.55 0.59 0.43 0.48 0.57 0.63 0.71 0.76 0.86 0.78 0.76 0.82 0.76 0.84 0.92 0.98 1.06 1.19 1.21 1.22 1.26 1.37 1.47 1.47 1.56 1.70 1.80 1.88 1.91 1.90 1.92 1.87 1.89 1.88 1.82
0.35 0.47 0.64 0.69 0.95 1.05 0.84 0.62 0.64 0.73 1.06 0.72 0.64 0.75 0.82 0.80 1.05 1.13 0.79 0.81 0.96 0.84 0.82 0.90 0.98 1.01 1.17 1.32 1.37 1.40 1.50 1.61 1.57 1.60 1.70 1.81 1.89 1.99 1.94 2.01 2.04 1.99 1.89 1.81
0.67 0.71 0.73 0.75 1.00 1.12 0.78 0.61 0.73 1.32 1.49 0.94 0.83 0.88 0.93 0.98 1.01 0.94 0.80 0.92 1.08 0.95 0.89 0.82 0.91 1.16 1.26 1.34 1.46 1.53 1.50 1.53 1.55 1.68 1.77 1.87 1.95 1.98 1.95 2.02 2.07 2.05 1.99 1.96
0.98 0.96 0.91 0.99 1.30 1.42 0.85 0.77 1.10 1.30 1.05 0.99 0.92 0.87 0.89 0.89 0.86 0.81 0.76 0.84 0.93 1.02 1.04 1.03 1.12 1.26 1.31 1.35 1.52 1.66 1.69 1.62 1.72 1.82 1.80 1.87 1.98 1.82 1.81 2.03 2.12 2.14 2.15 2.11
1.07 1.12 1.18 1.25 1.37 1.21 1.10 1.14 1.18 1.06 1.15 1.10 0.96 0.89 0.87 0.86 0.85 0.88 0.84 0.78 0.85 1.01 1.04 1.09 1.18 1.22 1.27 1.35 1.51 1.75 1.79 1.72 1.72 1.80 1.84 1.85 1.89 2.00 2.07 2.13 2.19 2.16 2.11 2.09
1.24 1.10 1.33 1.47 1.43 1.31 1.36 1.31 1.25 1.19 1.21 1.13 1.01 1.03 0.94 0.94 1.05 1.03 1.01 0.98 0.91 0.91 0.95 1.00 1.11 1.14 1.28 1.40 1.58 1.85 1.88 1.82 1.84 1.91 2.00 1.98 1.93 1.96 2.14 2.31 2.33 2.26 2.12 2.15
1.45 1.44 1.63 1.84 1.77 1.57 1.42 1.24 1.15 1.11 1.06 1.00 1.01 1.07 1.08 1.05 1.14 1.15 1.21 1.25 1.16 1.02 0.99 1.08 1.23 1.35 1.40 1.45 1.52 1.69 1.85 1.97 2.05 2.08 2.08 2.09 2.11 2.15 2.23 2.24 2.23 2.23 2.18 2.11
1.49 1.70 2.03 2.17 1.79 1.62 1.58 1.41 1.34 1.16 1.06 1.03 1.05 1.04 1.09 1.08 1.14 1.12 1.20 1.32 1.30 1.29 1.34 1.33 1.32 1.43 1.48 1.50 1.56 1.67 1.89 2.17 2.37 2.34 2.25 2.25 2.24 2.26 2.25 2.27 2.12 1.99 1.91 1.84